Location: Fauquembergues
(50.6005°N, 2.0987°E)
Time: 21:11:51
(UTC+00:00)

Cosmos 1908 Rocket - Pass Details

Date: 14 July 2020
Orbit: 605 x 633 km, 82.5° (Epoch: 14 August)

Event Time Altitude Azimuth Distance (km) Brightness Sun altitude
Exits shadow 03:05:55 - 190° (S) 2,570 6.2 -6.7°
Reaches altitude 10° 03:07:18 10° 191° (S) 2,014 5.7 -6.6°
Maximum altitude 03:11:46 85° 278° (W) 643 3.6 -6.1°
Drops below altitude 10° 03:16:17 10° 9° (N) 2,024 7.1 -5.6°
Sets 03:18:32 0° 10° (N) 2,933 8.0 -5.3°
